[[{"header":{"parameterUnit":"m.s-1","parameterCategory":1,"la1":30.2992,"la2":30.254,"lo1":-89.0895,"lo2":-89.0443,"dy":0.0025,"dx":0.0025,"nx":19,"ny":19,"refTime":"2026-03-08T03:00:00:Z","depth":0,"parameterNumber":2,"parameterNumberName":"U-component_of_WINDS"},"data":[0,0,0,2.119,2.1191,2.122,2.122,2.1263,2.1263,0,0,0,0,0,0,0,0,0,0,0,2.1183,2.1183,2.119,2.1191,2.122,2.122,2.1263,2.1264,0,0,0,0,0,0,0,0,0,0,0,2.1183,2.1183,2.1184,2.1191,2.122,2.122,2.1263,2.1239,0,0,0,0,0,0,0,0,0,0,2.121,2.1205,2.1183,2.1184,2.1191,2.122,2.122,2.1238,2.1241,2.1252,0,2.1261,0,2.1263,2.1267,2.1267,0,0,0,2.119,2.1203,2.1209,2.1184,2.1191,2.122,2.1206,2.1239,2.1243,2.1256,2.1261,2.1263,2.1264,2.1267,2.1267,2.1334,2.1334,0,0,2.1188,2.1189,2.1207,2.1211,2.1205,2.1205,2.1207,2.1241,2.1248,2.1262,2.1264,2.1264,2.1267,2.1268,2.1334,2.1334,0,0,0,2.1184,2.1188,2.1194,2.1209,2.1214,2.1206,2.1208,2.1247,2.1248,2.1264,2.1265,2.1268,2.1268,2.1333,2.1334,2.1353,0,0,0,2.1183,2.1186,2.1193,2.1194,2.1213,2.123,2.1213,2.1246,2.125,2.1265,2.1268,2.1269,2.1333,2.1333,2.1352,2.1362,0,0,0,2.1181,2.1186,2.119,2.1194,2.1207,2.123,2.1233,2.1247,2.125,2.1267,2.1269,2.1332,2.1333,2.1351,2.136,2.1382,0,0,0,2.1179,2.1206,2.1191,2.1223,2.1206,2.1241,2.1233,2.1259,2.1275,2.1268,2.1333,2.1334,2.135,2.1359,2.138,2.14,2.1408,0,0,2.1215,2.1211,2.123,2.1217,2.1254,2.1237,2.1278,2.1292,2.1293,2.1321,2.1322,2.1352,2.136,2.1381,2.1452,2.1459,0,0,0,2.1242,2.1255,2.1265,2.1281,2.1292,2.1304,2.1312,2.1318,2.1341,2.1307,2.1365,2.137,2.1382,2.1392,2.1397,2.1409,2.1338,2.1338,2.1338,2.1294,2.1294,2.1326,2.133,2.1346,2.1355,2.1369,2.1379,2.1373,2.1387,2.1395,2.1438,2.145,2.1454,2.1466,2.1405,2.1406,2.1406,2.1406,2.1348,2.1368,2.1362,2.1391,2.1392,2.1417,2.1428,2.1424,2.1449,2.1431,2.1442,2.1424,2.1461,2.1471,2.1407,2.1407,2.1407,2.1407,2.1406,2.1382,2.1392,2.1399,2.1424,2.1444,2.1448,2.1473,2.1473,2.1473,2.1484,2.1494,2.1494,2.1494,2.1489,2.1489,2.1489,2.1489,2.1489,2.1489,2.1416,2.1423,2.1443,2.146,2.1472,2.1488,2.15,2.1512,2.1526,2.1524,2.1524,2.1519,2.1464,2.1451,2.1492,2.1491,2.1491,2.1491,2.1491,2.1471,2.1459,2.149,2.1502,2.1524,2.1545,2.1546,2.1571,2.1582,2.1595,2.1588,2.1547,2.1543,2.1539,2.1528,2.1587,2.1587,2.1587,2.1587,2.1501,2.1499,2.1532,2.1552,2.1572,2.1576,2.1615,2.1626,2.1635,2.1643,2.1634,2.162,2.1615,2.1614,2.1608,2.1598,2.1673,2.1673,2.1673,2.1535,2.1536,2.1567,2.1576,2.1594,2.161,2.1647,2.1673,2.1681,2.1677,2.1649,2.1645,2.1622,2.1614,2.1608,2.1598,2.158,0,0]},{"header":{"parameterUnit":"m.s-1","parameterCategory":1,"la1":30.2992,"la2":30.254,"lo1":-89.0895,"lo2":-89.0443,"dy":0.0025,"dx":0.0025,"nx":19,"ny":19,"refTime":"2026-03-08T03:00:00:Z","depth":0,"parameterNumber":3,"parameterNumberName":"V-component_of_WINDS"},"data":[0,0,0,1.871,1.8711,1.881,1.881,1.8916,1.8917,0,0,0,0,0,0,0,0,0,0,0,1.8669,1.8669,1.871,1.8712,1.881,1.881,1.8916,1.8917,0,0,0,0,0,0,0,0,0,0,0,1.8668,1.8669,1.8669,1.8712,1.881,1.881,1.8916,1.8849,0,0,0,0,0,0,0,0,0,0,1.8757,1.8707,1.8669,1.8669,1.8712,1.881,1.881,1.8846,1.8853,1.8864,0,1.887,0,1.8895,1.8923,1.8923,0,0,0,1.8721,1.8701,1.8739,1.8669,1.8713,1.8809,1.8768,1.885,1.8858,1.8873,1.8871,1.8876,1.8897,1.8924,1.8924,1.8956,1.8955,0,0,1.8715,1.868,1.8733,1.8743,1.8727,1.8765,1.8771,1.8855,1.8851,1.8872,1.8879,1.8899,1.8924,1.8925,1.8956,1.8956,0,0,0,1.8694,1.8675,1.8711,1.8738,1.8757,1.8767,1.8775,1.8848,1.8862,1.888,1.89,1.8925,1.8926,1.8956,1.8956,1.8909,0,0,0,1.8691,1.8663,1.8709,1.8688,1.8755,1.8804,1.8764,1.8856,1.8867,1.8899,1.8925,1.8927,1.8957,1.8956,1.8911,1.8893,0,0,0,1.8666,1.866,1.8671,1.8686,1.8727,1.8803,1.8823,1.886,1.8879,1.8923,1.8927,1.8957,1.8956,1.8913,1.8896,1.8892,0,0,0,1.863,1.8626,1.8669,1.8673,1.8726,1.8773,1.8823,1.886,1.8893,1.8925,1.8957,1.8956,1.8914,1.8898,1.8894,1.8883,1.8874,0,0,1.8606,1.8622,1.8628,1.8669,1.87,1.8761,1.8786,1.8849,1.8885,1.893,1.8932,1.8911,1.8896,1.8892,1.884,1.8833,0,0,0,1.8608,1.8612,1.8628,1.8658,1.8706,1.8747,1.881,1.8834,1.8874,1.8901,1.8909,1.8901,1.89,1.8897,1.8891,1.8893,1.8953,1.8953,1.8953,1.8523,1.8571,1.8583,1.8643,1.8671,1.8737,1.8765,1.8808,1.8847,1.8848,1.8862,1.8824,1.8819,1.8815,1.8816,1.8859,1.8859,1.8859,1.8859,1.8493,1.8506,1.8559,1.859,1.8641,1.8667,1.8731,1.8758,1.879,1.8818,1.8819,1.8845,1.8806,1.881,1.8856,1.8856,1.8857,1.8857,1.8857,1.8443,1.8458,1.8487,1.8537,1.857,1.863,1.8659,1.8704,1.8746,1.8748,1.8768,1.8769,1.8776,1.8754,1.8754,1.8754,1.8754,1.8754,1.8753,1.838,1.8415,1.8434,1.8487,1.8513,1.8553,1.862,1.8647,1.8688,1.8718,1.8719,1.8758,1.8793,1.8801,1.8752,1.8752,1.8752,1.8752,1.8753,1.8333,1.8351,1.8381,1.8407,1.8473,1.8503,1.856,1.8611,1.864,1.8653,1.8693,1.8711,1.8731,1.8736,1.8743,1.8682,1.8682,1.8682,1.8682,1.8291,1.8306,1.8348,1.8387,1.843,1.8485,1.8518,1.857,1.8628,1.8648,1.8664,1.8677,1.868,1.8698,1.8704,1.8712,1.8643,1.8643,1.8643,1.8265,1.8287,1.8306,1.8363,1.8418,1.8465,1.8498,1.8541,1.8609,1.8643,1.8666,1.8668,1.869,1.8694,1.8728,1.8736,1.875,0,0]}]]